When you browse on this site, cookies collect data to enhance your experience and personalize the content and advertising you see.
Visit our Privacy Policy to learn more. By continuing to use the site, you agree to this use of cookies and data.
  • en France
  • Liste des pays
  • À 7 jours
  • Température de l'eau
  • Carte météo
  • Widgets météo
  • user-avatar
    Se connecter

    Météo par heure à Boston

    Ce jour, 26 Mai, Mardi

    Heure Température Précipitation Vent Pression Humidité
    00:00 +13°C° 0 mm 2 m/s 775 mmHg 91%
    01:00 +12°C° 0 mm 2 m/s 775 mmHg 88%
    02:00 +12°C° 0 mm 2 m/s 775 mmHg 85%
    03:00 +10°C° 0 mm 2 m/s 775 mmHg 82%
    04:00 +12°C° 0 mm 2 m/s 775 mmHg 80%
    05:00 +13°C° 0 mm 2 m/s 775 mmHg 78%
    06:00 +14°C° 0 mm 2 m/s 776 mmHg 80%
    07:00 +15°C° 0 mm 2 m/s 776 mmHg 74%
    08:00 +17°C° 0 mm 2 m/s 776 mmHg 68%
    09:00 +19°C° 0 mm 1 m/s 776 mmHg 62%
    10:00 +19°C° 0 mm 2 m/s 776 mmHg 62%
    11:00 +20°C° 0 mm 2 m/s 776 mmHg 62%
    12:00 +20°C° 0 mm 2 m/s 776 mmHg 63%
    13:00 +21°C° 0 mm 2 m/s 776 mmHg 64%
    14:00 +22°C° 0 mm 1 m/s 776 mmHg 65%
    15:00 +22°C° 0 mm 1 m/s 776 mmHg 66%
    16:00 +22°C° 0.1 mm 1 m/s 776 mmHg 71%
    17:00 +21°C° 0.1 mm 1 m/s 776 mmHg 75%
    18:00 +21°C° 0.1 mm 1 m/s 775 mmHg 80%
    19:00 +19°C° 0 mm 1 m/s 776 mmHg 82%
    20:00 +18°C° 0 mm 1 m/s 776 mmHg 84%
    21:00 +16°C° 0 mm 2 m/s 777 mmHg 86%
    22:00 +15°C° 0 mm 2 m/s 777 mmHg 86%
    23:00 +14°C° 0 mm 2 m/s 777 mmHg 86%

    Demain, 27 Mai, Mercredi

    Heure Température Précipitation Vent Pression Humidité
    00:00 +13°C° 0 mm 2 m/s 777 mmHg 87%
    01:00 +12°C° 0 mm 2 m/s 777 mmHg 86%
    02:00 +10°C° 0 mm 2 m/s 776 mmHg 86%
    03:00 +10°C° 0 mm 2 m/s 776 mmHg 86%
    04:00 +10°C° 0 mm 2 m/s 776 mmHg 86%
    05:00 +12°C° 0 mm 2 m/s 776 mmHg 87%
    06:00 +13°C° 0 mm 2 m/s 777 mmHg 88%
    07:00 +14°C° 0 mm 2 m/s 777 mmHg 84%
    08:00 +16°C° 0 mm 2 m/s 777 mmHg 80%
    09:00 +18°C° 0 mm 2 m/s 777 mmHg 75%
    10:00 +18°C° 0 mm 3 m/s 777 mmHg 74%
    11:00 +18°C° 0 mm 3 m/s 777 mmHg 72%
    12:00 +19°C° 0 mm 3 m/s 777 mmHg 71%
    13:00 +19°C° 0 mm 4 m/s 776 mmHg 71%
    14:00 +19°C° 0 mm 4 m/s 776 mmHg 71%
    15:00 +18°C° 0 mm 4 m/s 776 mmHg 72%
    16:00 +18°C° 0 mm 4 m/s 776 mmHg 74%
    17:00 +17°C° 0 mm 4 m/s 776 mmHg 75%
    18:00 +15°C° 0 mm 4 m/s 776 mmHg 77%
    19:00 +14°C° 0 mm 3 m/s 776 mmHg 81%
    20:00 +12°C° 0 mm 3 m/s 777 mmHg 84%
    21:00 +12°C° 0 mm 2 m/s 777 mmHg 88%
    22:00 +12°C° 0 mm 2 m/s 777 mmHg 89%
    23:00 +11°C° 0 mm 1 m/s 777 mmHg 90%

    Après-demain, 28 Mai, Jeudi

    Heure Température Précipitation Vent Pression Humidité
    00:00 +11°C° 0 mm 1 m/s 777 mmHg 91%
    01:00 +10°C° 0 mm 1 m/s 777 mmHg 90%
    02:00 +10°C° 0 mm 1 m/s 776 mmHg 89%
    03:00 +10°C° 0 mm 1 m/s 776 mmHg 88%
    04:00 +11°C° 0 mm 1 m/s 776 mmHg 85%
    05:00 +12°C° 0 mm 1 m/s 776 mmHg 83%
    06:00 +13°C° 0 mm 1 m/s 776 mmHg 80%
    07:00 +14°C° 0 mm 2 m/s 776 mmHg 75%
    08:00 +15°C° 0 mm 2 m/s 776 mmHg 69%
    09:00 +17°C° 0 mm 2 m/s 776 mmHg 64%
    10:00 +17°C° 0 mm 2 m/s 775 mmHg 62%
    11:00 +18°C° 0 mm 2 m/s 775 mmHg 61%
    12:00 +19°C° 0 mm 2 m/s 775 mmHg 60%
    13:00 +19°C° 0 mm 2 m/s 774 mmHg 61%
    14:00 +19°C° 0 mm 3 m/s 774 mmHg 62%
    15:00 +19°C° 0 mm 3 m/s 774 mmHg 63%
    16:00 +19°C° 0 mm 3 m/s 773 mmHg 67%
    17:00 +18°C° 0 mm 3 m/s 773 mmHg 71%
    18:00 +17°C° 0 mm 4 m/s 773 mmHg 74%
    19:00 +16°C° 0 mm 3 m/s 773 mmHg 78%
    20:00 +13°C° 0 mm 3 m/s 773 mmHg 81%
    21:00 +12°C° 0 mm 3 m/s 773 mmHg 85%
    22:00 +11°C° 0 mm 3 m/s 773 mmHg 85%
    23:00 +11°C° 0 mm 3 m/s 773 mmHg 85%

    29 Mai, Vendredi

    Heure Température Précipitation Vent Pression Humidité
    00:00 +10°C° 0 mm 2 m/s 773 mmHg 85%
    01:00 +9°C° 0 mm 2 m/s 772 mmHg 83%
    02:00 +9°C° 0 mm 2 m/s 772 mmHg 82%
    03:00 +9°C° 0 mm 1 m/s 772 mmHg 80%
    04:00 +10°C° 0 mm 1 m/s 772 mmHg 78%
    05:00 +11°C° 0 mm 1 m/s 772 mmHg 75%
    06:00 +12°C° 0 mm 1 m/s 772 mmHg 73%
    07:00 +14°C° 0 mm 1 m/s 772 mmHg 68%
    08:00 +15°C° 0 mm 2 m/s 771 mmHg 63%
    09:00 +17°C° 0 mm 2 m/s 771 mmHg 59%
    10:00 +18°C° 0 mm 2 m/s 771 mmHg 57%
    11:00 +19°C° 0 mm 3 m/s 771 mmHg 56%
    12:00 +20°C° 0 mm 3 m/s 770 mmHg 54%
    13:00 +20°C° 0 mm 3 m/s 770 mmHg 56%
    14:00 +20°C° 0 mm 3 m/s 770 mmHg 58%
    15:00 +21°C° 0 mm 3 m/s 770 mmHg 60%
    16:00 +20°C° 0 mm 3 m/s 769 mmHg 65%
    17:00 +19°C° 0 mm 3 m/s 769 mmHg 69%
    18:00 +19°C° 0 mm 3 m/s 769 mmHg 73%
    19:00 +17°C° 0 mm 3 m/s 769 mmHg 77%
    20:00 +14°C° 0 mm 3 m/s 769 mmHg 81%
    21:00 +13°C° 0 mm 3 m/s 769 mmHg 85%
    22:00 +12°C° 0 mm 3 m/s 769 mmHg 84%
    23:00 +11°C° 0 mm 3 m/s 769 mmHg 84%

    30 Mai, Samedi

    Heure Température Précipitation Vent Pression Humidité
    00:00 +10°C° 0 mm 2 m/s 769 mmHg 83%
    01:00 +9°C° 0 mm 2 m/s 769 mmHg 84%
    02:00 +9°C° 0 mm 2 m/s 769 mmHg 84%
    03:00 +10°C° 0 mm 1 m/s 769 mmHg 85%
    04:00 +11°C° 0 mm 1 m/s 769 mmHg 83%
    05:00 +12°C° 0 mm 1 m/s 769 mmHg 82%
    06:00 +13°C° 0 mm 1 m/s 769 mmHg 80%
    07:00 +14°C° 0 mm 1 m/s 769 mmHg 76%
    08:00 +16°C° 0 mm 1 m/s 769 mmHg 73%
    09:00 +17°C° 0 mm 2 m/s 769 mmHg 70%
    10:00 +18°C° 0 mm 2 m/s 769 mmHg 68%
    11:00 +19°C° 0 mm 3 m/s 769 mmHg 67%
    12:00 +19°C° 0 mm 3 m/s 769 mmHg 66%
    13:00 +19°C° 0 mm 4 m/s 768 mmHg 67%
    14:00 +19°C° 0 mm 4 m/s 768 mmHg 68%
    15:00 +19°C° 0 mm 4 m/s 768 mmHg 69%
    16:00 +18°C° 0 mm 4 m/s 768 mmHg 72%
    17:00 +17°C° 0 mm 4 m/s 768 mmHg 75%
    18:00 +17°C° 0 mm 4 m/s 767 mmHg 78%
    19:00 +14°C° 0 mm 4 m/s 767 mmHg 82%
    20:00 +13°C° 0 mm 3 m/s 768 mmHg 86%
    21:00 +11°C° 0 mm 3 m/s 768 mmHg 90%
    22:00 +11°C° 0 mm 3 m/s 768 mmHg 90%
    23:00 +10°C° 0 mm 2 m/s 768 mmHg 91%

    31 Mai, Dimanche

    Heure Température Précipitation Vent Pression Humidité
    00:00 +10°C° 0 mm 2 m/s 768 mmHg 92%
    01:00 +9°C° 0 mm 2 m/s 767 mmHg 92%
    02:00 +10°C° 0 mm 1 m/s 767 mmHg 92%
    03:00 +10°C° 0 mm 1 m/s 767 mmHg 92%
    04:00 +11°C° 0 mm 1 m/s 767 mmHg 90%
    05:00 +12°C° 0 mm 2 m/s 767 mmHg 88%
    06:00 +13°C° 0 mm 2 m/s 767 mmHg 86%
    07:00 +14°C° 0 mm 2 m/s 767 mmHg 82%
    08:00 +16°C° 0 mm 2 m/s 767 mmHg 78%
    09:00 +17°C° 0 mm 3 m/s 767 mmHg 74%
    10:00 +18°C° 0 mm 3 m/s 767 mmHg 72%
    11:00 +19°C° 0 mm 4 m/s 767 mmHg 71%
    12:00 +19°C° 0 mm 4 m/s 766 mmHg 70%
    13:00 +19°C° 0 mm 4 m/s 766 mmHg 71%
    14:00 +19°C° 0 mm 4 m/s 766 mmHg 71%
    15:00 +19°C° 0 mm 5 m/s 766 mmHg 71%
    16:00 +19°C° 0 mm 5 m/s 766 mmHg 73%
    17:00 +18°C° 0 mm 4 m/s 765 mmHg 75%
    18:00 +18°C° 0 mm 4 m/s 765 mmHg 77%
    19:00 +15°C° 0 mm 4 m/s 765 mmHg 80%
    20:00 +14°C° 0 mm 4 m/s 765 mmHg 84%
    21:00 +12°C° 0 mm 4 m/s 765 mmHg 87%
    22:00 +12°C° 0 mm 3 m/s 765 mmHg 87%
    23:00 +11°C° 0 mm 3 m/s 765 mmHg 86%
    Voir plus